Regional Weather Roundup
Issued by NWS

Home | Current Version | Previous Version | Text Only | Print | Product List | Glossary Off
Versions: 1 2 3 4 5 6 7 8 9 10 11 12 13 14 15 16 17 18 19 20 21 22 23 24 25 26 27 28 29 30 31 32 33 34 35 36 37 38 39 40 41 42 43 44 45 46 47 48 49 50

000
ASUS43 KLOT 180712
RWRIL

ILLINOIS REGIONAL WEATHER ROUNDUP
NATIONAL WEATHER SERVICE CHICAGO/ROMEOVILLE IL
200 AM CDT SAT APR 18 2015

NOTE: "FAIR" INDICATES FEW OR NO CLOUDS BELOW 12,000 FEET WITH NO
SIGNIFICANT WEATHER AND/OR OBSTRUCTIONS TO VISIBILITY.

* THESE STATIONS ARE NOT UNDER NWS QUALITY CONTROL. THEY ALSO MAY NOT
  REPORT WEATHER SUCH AS PRECIPITATION OR FOG.

ILZ001-002-007-009-015-016-024-180800-
NORTHWEST ILLINOIS

CITY           SKY/WX    TMP DP  RH WIND       PRES   REMARKS
MOLINE         CLEAR     53  47  79 CALM      30.01R
STERLING*      PTCLDY    54  46  76 CALM      30.01F
SAVANNA*       MOCLDY    57  49  74 N3        30.01R
$$

ILZ003-004-008-010-011-017-018-180800-
NORTH CENTRAL ILLINOIS

CITY           SKY/WX    TMP DP  RH WIND       PRES   REMARKS
ROCKFORD       CLEAR     56  48  74 CALM      30.03F
FREEPORT*      PTCLDY    52  46  78 CALM      30.03S
ROCHELLE*      PTCLDY    53  45  74 CALM      30.02S
DE KALB*       MOCLDY    61  46  56 SW6       30.02F
PERU*          PTCLDY    62  48  61 S5        30.02S
$$

ILZ005-006-012>014-019>023-180800-
NORTHEAST ILLINOIS

CITY           SKY/WX    TMP DP  RH WIND       PRES   REMARKS
CHICAGO-OHARE  MOCLDY    64  46  52 SW5       30.00S
CHICAGO-MIDWAY MOCLDY    65  48  54 SW7       30.01S
AURORA         PTCLDY    53  45  74 SE3       30.02S
LANSING*       PTCLDY    56  45  64 S3        30.02S
JOLIET*        CLEAR     55  51  86 CALM      30.02S
WAUKEGAN       CLEAR     54  45  71 W5        30.00S
DUPAGE AIRPORT CLEAR     57  48  72 CALM      30.01S
KANKAKEE*      MOCLDY    57  49  77 S6        30.03F
WHEELING       CLEAR     55  47  74 CALM      30.01F
MORRIS*        CLEAR     56  47  74 CALM      29.99F
ROMEOVILLE*    MOCLDY    60  47  64 SW5       30.02S
NORTHERLY ISL    N/A     65  46  50 W6          N/A
$$

LMZ740>746-180800-
SOUTHERN LAKE MICHIGAN

STATION/POSITION SKY/WX   TEMP    WIND        PRES    VSBY  WAVE
                          AIR SEA DIR/SP/G                  HT/PER
                          (F)     (DEG/KT/KT) (MB)    (MI)  (FT/S)
HARRISON CRIB              68     200/ 15/ 17   N/A
BURNHAM HARBOR             65     250/  5/  6   N/A
CALUMET HARBOR             64     210/  6/  7   N/A
BURNS HARBOR               65     190/ 10/ 12 1016.9R
MICHIGAN CITY              66     170/ 10/ 12   N/A
MICHIGAN CITY 6N           56 47                N/A           0
$$

ILZ025>027-034>036-040-047-049-050-058-095>099-180800-
WEST-CENTRAL ILLINOIS

CITY           SKY/WX    TMP DP  RH WIND       PRES   REMARKS
QUINCY         CLEAR     64  53  67 S7        30.01S
GALESBURG*     MOCLDY    60  52  75 CALM      30.02S
MACOMB*        CLEAR     56  50  80 CALM      30.04S
JACKSONVILLE*  CLEAR     61  55  78 S5        30.02S
PITTSFIELD*    CLEAR     61  53  75 CALM      30.03S
$$

ILZ028>032-037-038-041>044-048-051>054-059>061-180800-
CENTRAL ILLINOIS

CITY           SKY/WX    TMP DP  RH WIND       PRES   REMARKS
PONTIAC        MOCLDY    62  53  70 S5        30.03F
BLOOMINGTON    PTCLDY    59  53  80 S5        30.05S
DECATUR        CLEAR     57  51  80 CALM      30.03F
PEORIA         PTCLDY    66  52  60 CALM      30.02S
LACON*         MOCLDY    62  53  72 CALM      30.01S
LINCOLN*       CLEAR     56  49  80 CALM      30.02S
SPRINGFIELD    CLEAR     58  52  80 S3        30.02F
TAYLORVILLE    CLEAR     57  52  82 CALM      30.03S
$$

ILZ033-039-045-046-055>057-062-063-180800-
EAST-CENTRAL ILLINOIS

CITY           SKY/WX    TMP DP  RH WIND       PRES   REMARKS
CHAMPAIGN      CLEAR     56  48  74 S5        30.03F
DANVILLE*      CLEAR     55  48  79 CALM      30.01F
RANTOUL*       PTCLDY    59  52  77 CALM      30.04S
MATTOON        CLEAR     56  51  84 CALM      30.02F
PARIS*         CLEAR     55  52  91 CALM      30.05F
$$

ILZ079-100>102-180800-
SOUTHWEST ILLINOIS

CITY           SKY/WX    TMP DP  RH WIND       PRES   REMARKS
ALTON          CLEAR     57  55  94 CALM      30.02F
BELLEVILLE     CLEAR     58  58  99 NW2       30.00F FOG
CAHOKIA*       PTCLDY    60  57  89 CALM      30.01F
SPARTA*        PTCLDY    61  57  88 CALM      30.02S
$$

ILZ064>066-069>071-074>076-080>082-084>086-088>090-092>094-180800-
SOUTH-CENTRAL ILLINOIS

CITY           SKY/WX    TMP DP  RH WIND       PRES   REMARKS
CARBONDALE     PTCLDY    58  57  97 CALM      30.00F
CAIRO*           N/A     60  60 100 CALM      30.01S FOG
EFFINGHAM*     CLEAR     55  52  89 CALM      30.04F
MARION         PTCLDY    57  55  94 CALM      30.01F FOG
MT. VERNON     CLEAR     52  46  82 CALM      30.02F
CENTRALIA*     CLEAR     55  53  94 CALM      30.01F
SALEM*         CLEAR     57  54  88 CALM      30.03F
METROPOLIS*    MOCLDY    60  60 100 CALM      30.00F FOG
$$

ILZ067-068-072-073-078-083-087-091-180800-
SOUTHEAST ILLINOIS

CITY           SKY/WX    TMP DP  RH WIND       PRES   REMARKS
LAWRENCEVILLE  CLEAR     56  54  93 CALM      30.03F
FLORA*         CLEAR     56  54  92 N3        30.03F
FAIRFIELD*     CLEAR     58  56  95 CALM      30.01F FOG
HARRISBURG*    CLEAR     60  60  97 CALM      30.02F
ROBINSON*      CLEAR     52  51  95 CALM      30.04F
CARMI*         FOG       55  52  89 CALM      30.02F VSB 1/4
$$

ABBREVIATIONS USED IN REMARKS
   TC - TEMPERATURE IN CELSIUS
  WCI - WIND CHILL INDEX
   HX - HEAT INDEX
  VSB - VISIBILITY
$$




USA.gov is the U.S. government's official web portal to all federal, state and local government web resources and services.